Regional Weather Roundup
Issued by NWS

Home | Current Version | Previous Version | Graphics & Text | Print | Product List | Glossary On
Versions: 1 2 3 4 5 6 7 8 9 10 11 12 13 14 15 16 17 18 19 20 21 22 23 24 25 26 27 28 29 30 31 32 33 34 35 36 37 38 39 40 41 42 43 44 45 46 47 48 49 50
000
ASUS45 KABQ 232101
RWRNM
WEATHER ROUNDUP FOR NEW MEXICO
NATIONAL WEATHER SERVICE ALBUQUERQUE NM
200 PM MST SUN NOV 23 2014

NOTE: "FAIR" MEANS FEW OR NO CLOUDS BELOW 12,000 FEET AGL WITH NO
       SIGNIFICANT WEATHER OR OBSTRUCTIONS TO VISION.

      THIS PRODUCT IS RELEASED AS TWO VERSIONS.  ONE VERSION NEAR
      THE TOP OF THE HOUR CONTAINING PRELIMINARY DATA FROM ALBUQUERQUE
      AND OTHER STATIONS.  A FINAL VERSION WITH ADDITIONAL DATA IS
      ISSUED ABOUT 10 MINUTES AFTER THE HOUR.

NMZ501-503-504-510>518-232200-
NORTHWEST PLATEAU/NORTHCENTRAL MOUNTAINS

CITY           SKY/WX    TMP DP  RH WIND       PRES   REMARKS
FARMINGTON     MOSUNNY   44  14  29 NW25G38   29.91S
LOS ALAMOS     MOSUNNY   37  13  37 W6G26     29.78R WCI  32
SANTA FE       LGT RAIN  42  13  30 W17G29    29.76S
TAOS           CLOUDY    28  25  86 SW12      29.80R WCI  18
ANGEL FIRE     CLOUDY    28  20  72 W8        29.76S WCI  20

$$
NMZ402-403-502-505>509-232200-
WESTCENTRAL MOUNTAINS/SOUTHWEST MOUNTAINS

CITY           SKY/WX    TMP DP  RH WIND       PRES   REMARKS
GALLUP         SUNNY     41   5  22 NW22G30   30.01R
GRANTS         MOSUNNY   39   0  19 NW32G44   29.95R WCI  27
SILVER CITY    SUNNY     55  23  28 W28G38    29.91S

$$
NMZ407-409-411-412-232200-
SOUTHERN DESERTS

CITY           SKY/WX    TMP DP  RH WIND       PRES   REMARKS
LORDSBURG      FAIR      59  25  27 NW29G41   29.94F
DEMING         SUNNY     62  19  19 W36G45    29.85F
HOLLOMAN AFB   MOSUNNY   62  23  22 NW24G32   29.79F
ALAMOGORDO     MOSUNNY   63  23  22 NW22G28   29.81R
T OR C         SUNNY     59  16  18 NW26G40   29.83S

$$
NMZ519>523-232200-
CENTRAL VALLEYS/CENTRAL HIGHLANDS

CITY           SKY/WX    TMP DP  RH WIND       PRES   REMARKS
ALBUQUERQUE    MOSUNNY   45  14  28 W35G46    29.87S
DOUBLE EAGLE   MOSUNNY   43  10  26 W30G41    29.87F
MORIARTY ARPT  FAIR      43  14  31 W22G38    29.84R
CLINES CORNERS MOSUNNY   39  17  41 NW32G44   29.77R WCI  27
BELEN          MOCLDY    45  15  30 NW25G35   29.89R
SOCORRO        FAIR      55   9  16 NW22G36   29.85S

$$
NMZ524>526-539-540-232200-
SOUTHCENTRAL MOUNTAINS

CITY           SKY/WX    TMP DP  RH WIND       PRES   REMARKS
RUIDOSO        MOSUNNY   45  18  33 NW24G39   29.82R

$$
NMZ527>531-232200-
NORTHEAST HIGHLANDS/NORTHEAST PLAINS

CITY           SKY/WX    TMP DP  RH WIND       PRES   REMARKS
LAS VEGAS      FLURRIES  32  24  72 NE25G31   29.78R WCI  19
RATON          CLOUDY    34  19  54 N15       29.77R WCI  24
CLAYTON        CLOUDY    42  17  36 N29G35    29.72R

$$
NMZ532>537-232200-
EASTCENTRAL PLAINS

CITY           SKY/WX    TMP DP  RH WIND       PRES   REMARKS
TUCUMCARI      FLURRIES  35  33  92 CALM      29.80R
CANNON AFB     LGT RAIN  41  31  65 N29G41    29.74R
CLOVIS AIRPORT PTSUNNY  N/A N/A N/A N31G40    29.76R

$$
NMZ028-029-538-232200-
SOUTHEAST PLAINS

CITY           SKY/WX    TMP DP  RH WIND       PRES   REMARKS
ROSWELL        SUNNY     62  23  22 NW35G47   29.71R
CARLSBAD       SUNNY     70  20  15 W35G45    29.66F
HOBBS          SUNNY     66  23  19 W33G44    29.68R


$$



USA.gov is the U.S. government's official web portal to all federal, state and local government web resources and services.